Menominee, MI

8:19 AM CDT on August 30, 2016 (GMT -0500)
Menominee-Marinette Twin County

Weather History for KMNM - April, 2013

Change the Weather History Date:

Tuesday, April 16, 2013

  Actual Average Record
Temperature  
Mean Temperature 42 °F -  
Max Temperature 50 °F 57 °F 81 °F (1976)
Min Temperature 33 °F 35 °F 17 °F (2014)
Degree Days  
Heating Degree Days 24    
Moisture  
Dew Point 27 °F    
Average Humidity 58    
Maximum Humidity 87    
Minimum Humidity 37    
Precipitation  
Precipitation 0.00 in - - ()
Sea Level Pressure  
Sea Level Pressure 30.11 in    
Wind  
Wind Speed 7 mph (NW)    
Max Wind Speed 17 mph    
Max Gust Speed 23 mph    
Visibility 10 miles    
Events      
Averages and records for this station are not official NWS values.
T = Trace of Precipitation, MM = Missing Value Source: NWS Daily Summary

Daily Weather History Graph

Daily Weather History Graph

Search for Another Location

Airport or City:

Trip Planner

Search our weather history database for the weather conditions in past years. The results will help you decide how hot, cold, wet, or windy it might be!

Date:

Astronomy

Apr. 16, 2013 Rise Set
Actual Time 6:03 AM CDT 7:37 PM CDT
Civil Twilight 5:32 AM CDT 8:08 PM CDT
Nautical Twilight 4:55 AM CDT 8:46 PM CDT
Astronomical Twilight 4:15 AM CDT 9:26 PM CDT
Moon 10:14 AM CDT (4/16) 12:41 AM CDT (4/16)
Length of Visible Light 14h 36m
Length of Day
13h 34m
Waxing Crescent, 33% of the Moon is Illuminated
Apr 16
Waxing Crescent
Apr 18
First Quarter
Apr 25
Full
May 2
Last Quarter
May 9
New

Hourly Weather History & Observations

Time (CDT) Temp. Windchill Dew Point Humidity Pressure Visibility Wind Dir Wind Speed Gust Speed Precip Events Conditions
12:15 AM 37.4 °F 34.9 °F 26.6 °F 65% 29.91 in 10.0 mi West 3.5 mph - N/A   Overcast
12:35 AM 37.4 °F 33.8 °F 26.6 °F 65% 29.92 in 10.0 mi West 4.6 mph - N/A   Overcast
12:55 AM 37.4 °F 33.8 °F 26.6 °F 65% 29.93 in 10.0 mi West 4.6 mph - N/A   Mostly Cloudy
1:15 AM 37.4 °F 34.9 °F 26.6 °F 65% 29.93 in 10.0 mi West 3.5 mph - N/A   Mostly Cloudy
1:35 AM 37.4 °F 33.8 °F 26.6 °F 65% 29.92 in 10.0 mi WNW 4.6 mph - N/A   Overcast
1:55 AM 37.4 °F 33.8 °F 26.6 °F 65% 29.93 in 10.0 mi West 4.6 mph - N/A   Overcast
2:15 AM 37.4 °F 34.9 °F 26.6 °F 65% 29.92 in 10.0 mi West 3.5 mph - N/A   Overcast
2:35 AM 37.4 °F 32.8 °F 26.6 °F 65% 29.93 in 10.0 mi WSW 5.8 mph - N/A   Overcast
2:55 AM 37.4 °F 32.8 °F 26.6 °F 65% 29.93 in 10.0 mi West 5.8 mph - N/A   Overcast
3:15 AM 37.4 °F 32.8 °F 26.6 °F 65% 29.93 in 10.0 mi WSW 5.8 mph - N/A   Overcast
3:35 AM 37.4 °F 33.8 °F 26.6 °F 65% 29.93 in 10.0 mi WSW 4.6 mph - N/A   Overcast
3:55 AM 37.4 °F 32.8 °F 26.6 °F 65% 29.94 in 10.0 mi West 5.8 mph - N/A   Overcast
4:15 AM 37.4 °F 31.4 °F 26.6 °F 65% 29.94 in 10.0 mi WSW 8.1 mph - N/A   Overcast
4:35 AM 37.4 °F 32.1 °F 26.6 °F 65% 29.95 in 10.0 mi WSW 6.9 mph - N/A   Overcast
4:55 AM 35.6 °F 30.7 °F 26.6 °F 70% 29.97 in 10.0 mi West 5.8 mph - N/A   Overcast
5:15 AM 35.6 °F 31.7 °F 26.6 °F 70% 29.97 in 10.0 mi West 4.6 mph - N/A   Overcast
5:35 AM 35.6 °F 30.7 °F 26.6 °F 70% 29.96 in 10.0 mi West 5.8 mph - N/A   Overcast
5:55 AM 35.6 °F 31.7 °F 26.6 °F 70% 29.97 in 10.0 mi WSW 4.6 mph - N/A   Mostly Cloudy
6:15 AM 35.6 °F 30.7 °F 26.6 °F 70% 29.98 in 10.0 mi WSW 5.8 mph - N/A   Scattered Clouds
6:35 AM 35.6 °F 31.7 °F 26.6 °F 70% 29.99 in 10.0 mi West 4.6 mph - N/A   Clear
7:15 AM 35.6 °F 29.9 °F 28.4 °F 75% 30.00 in 10.0 mi West 6.9 mph - N/A   Clear
7:35 AM 37.4 °F 32.8 °F 28.4 °F 70% 30.02 in 10.0 mi West 5.8 mph - N/A   Clear
7:55 AM 37.4 °F 32.1 °F 28.4 °F 70% 30.04 in 10.0 mi West 6.9 mph - N/A   Clear
8:15 AM 39.2 °F 31.6 °F 28.4 °F 65% 30.05 in 4.0 mi WNW 12.7 mph 19.6 mph N/A   Partly Cloudy
8:35 AM 39.2 °F 32.5 °F 26.6 °F 61% 30.05 in 10.0 mi WNW 10.4 mph 19.6 mph N/A   Mostly Cloudy
8:55 AM 39.2 °F 32.5 °F 26.6 °F 61% 30.05 in 10.0 mi West 10.4 mph - N/A   Overcast
9:15 AM 39.2 °F 32.0 °F 28.4 °F 65% 30.06 in 10.0 mi WNW 11.5 mph 17.3 mph N/A   Overcast
9:35 AM 41.0 °F 36.4 °F 28.4 °F 61% 30.06 in 10.0 mi WNW 6.9 mph 16.1 mph N/A   Overcast
9:55 AM 41.0 °F 35.8 °F 28.4 °F 61% 30.07 in 10.0 mi WNW 8.1 mph 16.1 mph N/A   Overcast
10:15 AM 42.8 °F 37.5 °F 28.4 °F 57% 30.08 in 10.0 mi NW 9.2 mph - N/A   Overcast
10:35 AM 42.8 °F 38.6 °F 28.4 °F 57% 30.09 in 10.0 mi WNW 6.9 mph - N/A   Overcast
10:55 AM 42.8 °F 37.5 °F 28.4 °F 57% 30.10 in 10.0 mi NW 9.2 mph 21.9 mph N/A   Mostly Cloudy
11:15 AM 42.8 °F 36.2 °F 28.4 °F 57% 30.10 in 10.0 mi WNW 12.7 mph 18.4 mph N/A   Mostly Cloudy
11:35 AM 44.6 °F 38.8 °F 28.4 °F 53% 30.10 in 10.0 mi WNW 11.5 mph 19.6 mph N/A   Scattered Clouds
11:55 AM 44.6 °F 38.4 °F 28.4 °F 53% 30.11 in 10.0 mi NW 12.7 mph 23.0 mph N/A   Partly Cloudy
12:15 PM 44.6 °F 38.4 °F 28.4 °F 53% 30.12 in 10.0 mi WNW 12.7 mph 20.7 mph N/A   Partly Cloudy
12:35 PM 46.4 °F 40.7 °F 28.4 °F 50% 30.12 in 10.0 mi WNW 12.7 mph 23.0 mph N/A   Clear
12:55 PM 46.4 °F 42.4 °F 28.4 °F 50% 30.12 in 10.0 mi NW 8.1 mph 17.3 mph N/A   Clear
1:15 PM 46.4 °F 41.1 °F 28.4 °F 50% 30.13 in 10.0 mi WNW 11.5 mph 20.7 mph N/A   Clear
1:35 PM 46.4 °F 42.4 °F 28.4 °F 50% 30.15 in 10.0 mi WNW 8.1 mph 19.6 mph N/A   Partly Cloudy
1:55 PM 48.2 °F - 26.6 °F 43% 30.15 in 10.0 mi West 12.7 mph 19.6 mph N/A   Mostly Cloudy
2:15 PM 46.4 °F 41.1 °F 28.4 °F 50% 30.15 in 10.0 mi NNW 11.5 mph 16.1 mph N/A   Mostly Cloudy
2:35 PM 48.2 °F - 26.6 °F 43% 30.16 in 10.0 mi NW 6.9 mph - N/A   Mostly Cloudy
2:55 PM 48.2 °F - 26.6 °F 43% 30.16 in 10.0 mi WNW 13.8 mph 18.4 mph N/A   Scattered Clouds
3:15 PM 48.2 °F - 26.6 °F 43% 30.16 in 10.0 mi WNW 11.5 mph 20.7 mph N/A   Mostly Cloudy
3:35 PM 48.2 °F - 26.6 °F 43% 30.17 in 10.0 mi WNW 11.5 mph 17.3 mph N/A   Mostly Cloudy
3:55 PM 48.2 °F - 26.6 °F 43% 30.17 in 10.0 mi NNW 8.1 mph - N/A   Partly Cloudy
4:15 PM 48.2 °F - 24.8 °F 40% 30.17 in 10.0 mi NNW 5.8 mph - N/A   Mostly Cloudy
4:35 PM 48.2 °F - 24.8 °F 40% 30.18 in 10.0 mi WNW 3.5 mph - N/A   Overcast
4:55 PM 48.2 °F - 24.8 °F 40% 30.19 in 10.0 mi North 9.2 mph 16.1 mph N/A   Mostly Cloudy
5:15 PM 50.0 °F - 24.8 °F 37% 30.20 in 10.0 mi NW 8.1 mph - N/A   Partly Cloudy
5:35 PM 50.0 °F - 24.8 °F 37% 30.20 in 10.0 mi North 11.5 mph 16.1 mph N/A   Partly Cloudy
5:55 PM 48.2 °F - 24.8 °F 40% 30.21 in 10.0 mi North 8.1 mph - N/A   Partly Cloudy
6:15 PM 48.2 °F - 26.6 °F 43% 30.22 in 10.0 mi North 9.2 mph - N/A   Clear
6:35 PM 48.2 °F - 24.8 °F 40% 30.22 in 10.0 mi North 9.2 mph - N/A   Clear
6:55 PM 48.2 °F - 24.8 °F 40% 30.23 in 10.0 mi NNW 6.9 mph - N/A   Clear
7:15 PM 46.4 °F 42.9 °F 24.8 °F 43% 30.24 in 10.0 mi NNW 6.9 mph - N/A   Scattered Clouds
7:35 PM 46.4 °F 44.3 °F 24.8 °F 43% 30.25 in 10.0 mi North 4.6 mph - N/A   Scattered Clouds
7:55 PM 44.6 °F 42.2 °F 24.8 °F 46% 30.25 in 10.0 mi North 4.6 mph - N/A   Clear
8:15 PM 44.6 °F 42.2 °F 24.8 °F 46% 30.26 in 10.0 mi North 4.6 mph - N/A   Clear
8:35 PM 42.8 °F 40.1 °F 24.8 °F 49% 30.28 in 10.0 mi ENE 4.6 mph - N/A   Clear
8:55 PM 39.2 °F 32.0 °F 28.4 °F 65% 30.29 in 10.0 mi ENE 11.5 mph - N/A   Clear
9:15 PM 39.2 °F 31.6 °F 30.2 °F 70% 30.31 in 10.0 mi ENE 12.7 mph - N/A   Clear
9:35 PM 39.2 °F 31.2 °F 28.4 °F 65% 30.32 in 10.0 mi ENE 13.8 mph - N/A   Clear
9:55 PM 39.2 °F 30.2 °F 30.2 °F 70% 30.32 in 10.0 mi East 17.3 mph - N/A   Clear
10:15 PM 37.4 °F 28.9 °F 30.2 °F 75% 30.33 in 10.0 mi East 13.8 mph - N/A   Clear
10:35 PM 37.4 °F 28.2 °F 28.4 °F 70% 30.34 in 10.0 mi East 16.1 mph - N/A   Clear
10:55 PM 35.6 °F 27.1 °F 28.4 °F 75% 30.34 in 10.0 mi ENE 12.7 mph - N/A   Clear
11:15 PM 33.8 °F 25.8 °F 30.2 °F 87% 30.35 in 10.0 mi ENE 10.4 mph - N/A   Clear
11:35 PM 33.8 °F 25.8 °F 30.2 °F 87% 30.36 in 10.0 mi East 10.4 mph - N/A   Clear
11:55 PM 33.8 °F 25.3 °F 28.4 °F 81% 30.37 in 10.0 mi ENE 11.5 mph - N/A   Clear